DateTimeUTC,F1_A11,F1_S11,BsB_S11,BsG_S11,BsR_S11,BbsB_S11,BbsG_S11,BbsR_S11,BaB_A11,BaG_A11,BaR_A11,Tu_S11,T_S11,Uu_S11,U_S11,P_S11,T1_A11
2021-01-29T04:00:00Z,00000200,21000000,,,,,,,-000.26,-000.37,-000.34,15.5,23.3,,00.0,0633.6,30.9
2021-01-29T04:01:00Z,00000200,21000000,,,,,,,-000.00,0000.29,0000.08,15.5,23.3,,00.0,0633.6,30.8
2021-01-29T04:02:00Z,00000200,21000000,,,,,,,0000.24,0000.31,0000.22,15.5,23.3,,00.0,0633.6,30.9
2021-01-29T04:03:00Z,00000200,61000000,,,,,,,-000.07,0000.17,0000.21,15.5,23.3,,00.0,0633.6,30.9
2021-01-29T04:04:00Z,00000200,41000000,0000.32,0000.06,-000.01,-000.08,-000.19,0000.35,0000.24,0000.16,0000.17,15.9,23.1,,00.0,0634.6,30.9
2021-01-29T04:05:00Z,00000200,01000000,0000.24,0000.00,0000.28,-000.00,0000.14,0000.17,0000.14,0000.19,-000.04,16.0,23.1,,00.0,0634.7,30.9
2021-01-29T04:06:00Z,00000200,01000000,0000.40,0000.05,0000.14,0000.03,0000.07,0000.01,-000.03,0000.09,0000.11,16.1,23.1,,00.0,0634.7,30.9
2021-01-29T04:07:00Z,00000200,01000000,-000.09,0000.30,-000.03,-000.35,0000.18,-000.05,0000.35,0000.13,0000.41,16.1,23.1,,00.0,0634.7,30.9
2021-01-29T04:08:00Z,00000200,01000000,0000.43,-000.07,0000.20,-000.31,0000.03,0000.17,-000.18,-000.37,-000.30,16.2,23.2,,00.0,0634.7,30.9
2021-01-29T04:09:00Z,00000200,01000000,-000.13,0000.04,0000.14,0000.21,0000.08,0000.05,0000.08,-000.06,-000.19,16.2,23.1,,00.0,0634.7,30.9
2021-01-29T04:10:00Z,00000200,01000000,0000.35,0000.07,0000.02,-000.23,0000.13,0000.20,-000.26,-000.00,0000.17,16.1,23.1,,00.0,0634.8,30.9
2021-01-29T04:11:00Z,00000200,01000000,0000.06,-000.14,0000.27,-000.38,0000.07,-000.01,0000.08,0000.20,0000.11,16.1,23.1,,00.0,0634.8,30.9
2021-01-29T04:12:00Z,00000200,01000000,0000.13,0000.08,-000.05,-000.15,0000.40,0000.12,0000.01,0000.19,-000.24,16.0,23.0,,00.0,0634.8,30.9
2021-01-29T04:13:00Z,00000200,01000000,-000.28,0000.26,-000.13,0000.16,0000.18,0000.22,-000.01,-000.08,-000.27,15.9,23.0,,00.0,0634.9,30.9
2021-01-29T04:14:00Z,00000200,01000000,0000.14,0000.20,0000.22,0000.07,-000.01,0000.38,0000.27,-000.10,-000.00,15.8,23.0,,00.0,0634.9,30.9
2021-01-29T04:15:00Z,00000200,01000000,-000.13,0000.26,0000.01,-000.29,0000.17,0000.32,-000.03,-000.21,0000.29,15.8,22.9,,00.0,0634.9,30.8
2021-01-29T04:16:00Z,00000200,01000000,0000.32,0000.28,0000.16,-000.35,0000.09,-000.15,0000.15,0000.53,0000.20,15.7,22.9,,00.0,0634.9,30.8
2021-01-29T04:17:00Z,00000200,01000000,0000.19,0000.22,0000.20,0000.15,0000.08,-000.13,0000.09,-000.10,0000.38,15.8,22.9,,00.0,0635.0,30.9
2021-01-29T04:18:00Z,00000200,01000000,-000.13,-000.05,0000.10,-000.28,0000.12,-000.02,0000.30,0000.44,0000.17,15.8,22.9,,00.0,0635.0,30.9
2021-01-29T04:19:00Z,00000200,01000000,0000.48,0000.50,0000.06,-000.54,-000.11,0000.15,0000.24,0000.04,0000.11,15.9,22.9,,00.0,0635.0,30.9
2021-01-29T04:20:00Z,00000200,01000000,-000.23,0000.18,-000.16,0000.25,-000.06,0000.23,0000.11,-000.01,0000.03,15.9,23.0,,00.0,0635.0,30.9
2021-01-29T04:21:00Z,00000200,01000000,0000.16,0000.43,0000.16,0000.03,0000.05,0000.12,-000.21,0000.25,0000.01,16.0,23.0,,00.0,0634.9,30.9
2021-01-29T04:22:00Z,00000200,01000000,0000.14,0000.12,0000.36,-000.07,-000.03,0000.30,0000.55,0000.49,0000.47,16.1,23.0,,00.0,0634.9,30.9
2021-01-29T04:23:00Z,00000200,01000000,-000.19,-000.16,0000.18,-000.34,0000.33,0000.22,0000.15,0000.07,-000.16,16.1,23.0,,00.0,0635.1,30.9
2021-01-29T04:24:00Z,00000200,01000000,0000.21,0000.33,0000.21,-000.38,-000.04,0000.17,0000.23,0000.32,0000.45,16.2,23.0,,00.0,0635.0,30.9
2021-01-29T04:25:00Z,00000200,01000000,0000.34,0000.29,0000.22,-000.60,0000.37,-000.13,0000.09,0000.08,0000.17,16.3,23.1,,00.0,0635.1,30.9
2021-01-29T04:26:00Z,00000200,01000000,0000.54,-000.07,0000.20,-000.10,0000.16,0000.06,-000.04,-000.51,-000.08,16.3,23.1,,00.0,0635.1,30.9
2021-01-29T04:27:00Z,00000200,01000000,-000.01,0000.08,0000.26,-000.37,0000.14,0000.29,0000.04,0000.49,-000.24,16.3,23.1,,00.0,0635.2,30.9
2021-01-29T04:28:00Z,00000200,01000000,0000.35,0000.04,0000.11,-000.36,0000.09,0000.09,0000.24,0000.04,-000.16,16.2,23.1,,00.0,0635.2,30.9
2021-01-29T04:29:00Z,00000200,01000000,0000.61,0000.17,0000.08,-000.25,0000.07,0000.15,0000.26,-000.02,0000.15,16.1,23.0,,00.0,0635.2,30.9
2021-01-29T04:30:00Z,00000200,01000000,0000.33,0000.09,0000.26,0000.59,0000.44,-000.01,0000.21,-000.01,0000.06,16.0,23.0,,00.0,0635.2,30.9
2021-01-29T04:31:00Z,00000200,01000000,0000.52,0000.29,-000.01,0000.01,-000.23,0000.09,0000.23,0000.66,0000.64,16.0,23.0,,00.0,0635.1,30.9
2021-01-29T04:32:00Z,00000200,01000000,0000.17,0000.16,0000.12,-000.07,0000.17,0000.24,-000.08,0000.12,-000.15,16.0,23.0,,00.0,0635.1,30.9
2021-01-29T04:33:00Z,00000200,01000000,0000.92,-000.05,0000.09,-000.08,-000.03,0000.02,0000.31,0000.12,0000.09,16.1,23.0,,00.0,0635.1,30.9
2021-01-29T04:34:00Z,00000200,01000000,0000.53,0000.55,0000.13,0000.06,0000.07,0000.04,0000.16,0000.39,0000.25,16.1,23.0,,00.0,0635.1,30.9
2021-01-29T04:35:00Z,00000200,01000000,-000.41,0000.34,-000.11,-000.31,-000.13,0000.03,0000.67,0000.43,0000.59,16.2,23.1,,00.0,0635.1,30.9
2021-01-29T04:36:00Z,00000200,01000000,0000.67,0000.27,0000.09,-000.01,0000.09,0000.14,-000.20,-000.14,-000.15,16.3,23.1,,00.0,0635.2,30.9
2021-01-29T04:37:00Z,00000200,01000000,0000.65,0000.20,0000.24,0000.20,0000.10,-000.04,0000.11,0000.23,-000.09,16.3,23.1,,00.0,0635.1,30.9
2021-01-29T04:38:00Z,00000200,01000000,0000.18,0000.01,0000.29,-000.15,-000.02,0000.03,0000.36,0000.07,0000.67,16.4,23.2,,00.0,0635.2,30.9
2021-01-29T04:39:00Z,00000200,01000000,-000.09,0000.17,0000.09,-000.93,0000.20,0000.18,-000.12,0000.23,-000.21,16.4,23.2,,00.0,0635.2,31.0
2021-01-29T04:40:00Z,00000200,01000000,-000.09,0000.13,0000.23,-000.04,0000.05,0000.18,0000.10,-000.09,0000.14,16.5,23.2,,00.0,0635.3,31.0
2021-01-29T04:41:00Z,00000200,01000000,-000.05,0000.06,0000.12,-000.07,-000.12,-000.01,-000.12,0000.09,-000.25,16.6,23.2,,00.0,0635.3,31.0
2021-01-29T04:42:00Z,00000200,01000000,-000.47,0000.16,0000.20,-000.48,0000.21,0000.16,0000.23,0000.23,0000.16,16.6,23.3,,00.0,0635.3,30.9
2021-01-29T04:43:00Z,00000200,01000000,0000.10,0000.26,0000.15,-000.38,0000.26,0000.37,0000.29,0000.25,-000.09,16.6,23.3,,00.0,0635.3,31.0
2021-01-29T04:44:00Z,00000200,01000000,0000.50,-000.11,0000.20,0000.14,0000.03,0000.08,-000.38,-000.61,-000.11,16.6,23.3,,00.0,0635.2,31.0
2021-01-29T04:45:00Z,00000200,01000000,-000.15,-000.02,0000.39,0000.37,0000.18,0000.17,0000.26,-000.14,0000.05,16.6,23.3,,00.0,0635.2,30.9
2021-01-29T04:46:00Z,00000200,01000000,0000.53,0000.35,0000.04,-000.04,-000.05,0000.18,0000.30,0000.46,0000.17,16.6,23.3,,00.0,0635.2,30.9
2021-01-29T04:47:00Z,00000200,01000000,-000.42,0000.00,0000.17,-000.03,0000.33,0000.35,-000.06,-000.14,0000.10,16.6,23.3,,00.0,0635.2,30.9
2021-01-29T04:48:00Z,00000200,01000000,0000.35,-000.00,0000.01,0000.28,0000.21,0000.27,0000.36,0000.48,0000.25,16.6,23.3,,00.0,0635.2,30.9
2021-01-29T04:49:00Z,00000200,01000000,-000.13,0000.06,0000.19,-000.15,0000.17,0000.24,-000.22,0000.44,0000.01,16.7,23.4,,00.0,0635.2,30.9
2021-01-29T04:50:00Z,00000200,01000000,-000.23,-000.03,0000.19,0000.08,0000.07,0000.00,0000.20,-000.50,-000.09,16.7,23.4,,00.0,0635.3,30.9
2021-01-29T04:51:00Z,00000200,01000000,0000.42,0000.40,-000.03,-000.12,0000.23,-000.01,0000.02,0000.35,0000.19,16.6,23.4,,00.0,0635.3,30.9
2021-01-29T04:52:00Z,00000200,01000000,-000.02,0000.20,0000.07,0000.00,0000.15,0000.14,0000.09,0000.14,-000.25,16.5,23.3,,00.0,0635.3,30.9
2021-01-29T04:53:00Z,00000200,01000000,0000.29,-000.09,0000.15,0000.04,0000.11,0000.27,-000.03,-000.18,0000.36,16.4,23.3,,00.0,0635.3,30.9
2021-01-29T04:54:00Z,00000200,01000000,0000.34,-000.01,0000.05,-000.01,0000.23,0000.25,0000.23,0000.11,-000.33,16.3,23.3,,00.0,0635.4,30.9
2021-01-29T04:55:00Z,00000200,01000000,0000.63,0000.13,0000.15,-000.00,0000.05,0000.06,0000.23,-000.25,0000.48,16.2,23.2,,00.0,0635.4,30.9
2021-01-29T04:56:00Z,00000200,01000000,-000.03,0000.37,0000.22,0000.15,0000.13,0000.14,-000.17,0000.26,0000.09,16.1,23.2,,00.0,0635.4,30.9
2021-01-29T04:57:00Z,00000200,41000000,,,,,,,0000.87,0000.47,0000.23,16.1,23.2,,00.0,0635.4,30.9
2021-01-29T04:58:00Z,00000200,61000000,,,,,,,-000.20,0000.07,0000.43,15.5,23.3,,00.0,0634.5,30.8
2021-01-29T04:59:00Z,00000200,21000000,,,,,,,0000.03,-000.08,-000.32,15.5,23.4,,00.0,0634.5,30.8
